[[{"header":{"parameterUnit":"m.s-1","parameterCategory":1,"la1":30.2991,"la2":30.254,"lo1":-89.0895,"lo2":-89.0444,"dy":0.0017,"dx":0.0017,"nx":28,"ny":28,"refTime":"2025-09-18T03:00:00:Z","depth":0,"parameterNumber":2,"parameterNumberName":"U-component_of_WINDS"},"data":[0,0,0,0,0,0,0,0,0,0,0,0,0,0,0,0,0,0,0,0,0,0,0,0,0,0,0,0,0,0,0,0,0,0,0,0,0,0,0,0,0,0,0,0,0,0,0,0,0,0,0,0,0,0,0,0,0,0,-0.7302,-0.7302,0,-0.7287,-0.7287,-0.7287,-0.7247,-0.7246,-0.7245,-0.7244,-0.7231,-0.7231,-0.7232,0,0,0,0,0,0,0,0,0,0,0,0,0,-0.7298,-0.7298,-0.7302,-0.7302,-0.7302,-0.7287,-0.7287,-0.7287,-0.7247,-0.7246,-0.7245,-0.7244,-0.7231,-0.7231,-0.7232,0,0,0,0,0,0,0,0,0,0,0,0,0,-0.7293,-0.7298,-0.7302,-0.728,-0.7278,-0.7287,-0.7287,-0.7287,-0.7247,-0.7246,-0.7244,-0.7243,-0.723,-0.7231,-0.7232,-0.7262,0,0,-0.7234,-0.7234,0,0,0,0,0,0,0,0,-0.7293,-0.7293,-0.7284,-0.7282,-0.7279,-0.7267,-0.7281,-0.7279,-0.7247,-0.7259,-0.7244,-0.7243,-0.7244,-0.7244,-0.7244,-0.7262,-0.7261,-0.7234,-0.7234,-0.7235,-0.7235,0,0,0,0,0,0,0,-0.7294,-0.7294,-0.7296,-0.7283,-0.7281,-0.7271,-0.7269,-0.728,-0.7259,-0.7258,-0.7255,-0.7253,-0.7243,-0.7243,-0.7243,-0.7261,-0.7234,-0.7235,-0.7235,-0.7235,-0.7303,-0.7305,0,0,0,0,0,0,-0.7297,-0.7294,-0.7297,-0.7296,-0.7283,-0.7273,-0.727,-0.7273,-0.7259,-0.7255,-0.7255,-0.7252,-0.7243,-0.7242,-0.7243,-0.7278,-0.7235,-0.7235,-0.7236,-0.7302,-0.7304,-0.7305,0,0,0,0,0,0,-0.7297,-0.7298,-0.7297,-0.7294,-0.7294,-0.7274,-0.7277,-0.7273,-0.7273,-0.7256,-0.7253,-0.7259,-0.7242,-0.7242,-0.7258,-0.7277,-0.7236,-0.7236,-0.73,-0.7302,-0.7304,-0.7348,0,0,0,0,0,0,-0.7297,-0.7298,-0.7309,-0.7295,-0.7294,-0.7312,-0.7278,-0.7274,-0.7274,-0.727,-0.7259,-0.7256,-0.7241,-0.7257,-0.7258,-0.7277,-0.7237,-0.7298,-0.7301,-0.7304,-0.7345,-0.7351,-0.7357,0,0,0,0,0,-0.7297,-0.7322,-0.731,-0.731,-0.7307,-0.7314,-0.7313,-0.7294,-0.7276,-0.7287,-0.7276,-0.7257,-0.7274,-0.7259,-0.726,-0.7279,-0.7297,-0.73,-0.7303,-0.7342,-0.735,-0.7357,0,0,0,0,0,0,-0.734,-0.732,-0.7306,-0.7327,-0.7322,-0.7307,-0.732,-0.7303,-0.7304,-0.73,-0.7277,-0.7275,-0.7294,-0.7288,-0.7271,-0.7308,-0.7282,-0.7286,-0.7311,-0.7319,-0.7325,-0.7326,-0.7237,0,0,0,0,0,-0.7352,-0.7358,-0.734,-0.7361,-0.7359,-0.734,-0.7342,-0.7328,-0.7322,-0.732,-0.731,-0.7306,-0.7311,-0.7314,-0.7317,-0.7343,-0.7341,-0.7357,-0.7363,-0.7368,-0.7372,-0.7386,-0.7393,-0.7315,-0.7315,-0.7315,0,0,-0.7376,-0.7366,-0.7372,-0.7369,-0.7364,-0.7371,-0.7339,-0.7348,-0.7354,-0.7322,-0.7336,-0.7329,-0.7323,-0.7344,-0.7353,-0.734,-0.7393,-0.7372,-0.7376,-0.7377,-0.739,-0.7397,-0.7404,-0.7317,-0.7317,-0.7317,0,0,-0.7425,-0.7418,-0.7434,-0.7429,-0.7421,-0.7408,-0.7412,-0.7399,-0.7393,-0.7407,-0.7383,-0.739,-0.7398,-0.7395,-0.7394,-0.7441,-0.7423,-0.7443,-0.7475,-0.7489,-0.7495,-0.75,-0.7518,-0.7524,-0.7446,-0.7447,-0.7447,0,-0.7458,-0.7467,-0.7445,-0.7456,-0.7456,-0.7426,-0.7443,-0.7439,-0.7433,-0.7434,-0.7419,-0.7428,-0.7422,-0.7442,-0.7454,-0.7454,-0.7459,-0.7445,-0.7495,-0.7501,-0.7505,-0.7522,-0.7528,-0.7449,-0.7449,-0.7448,-0.7448,0,-0.7507,-0.7515,-0.7529,-0.7523,-0.7524,-0.7538,-0.7518,-0.7522,-0.7508,-0.7497,-0.7512,-0.7503,-0.7504,-0.7507,-0.7493,-0.7526,-0.7518,-0.75,-0.7473,-0.7515,-0.7531,-0.7537,-0.7453,-0.7452,-0.7451,-0.745,0,0,-0.7584,-0.7565,-0.7571,-0.7567,-0.7556,-0.7562,-0.7574,-0.7574,-0.7579,-0.7575,-0.7586,-0.7593,-0.7576,-0.7575,-0.756,-0.7572,-0.7611,-0.7552,-0.7552,-0.7564,-0.7647,-0.7661,-0.7669,-0.7599,-0.76,-0.76,-0.7647,0,-0.7631,-0.7651,-0.7631,-0.7655,-0.7662,-0.7633,-0.7644,-0.7639,-0.7629,-0.7634,-0.7622,-0.7628,-0.7605,-0.7604,-0.7615,-0.7604,-0.7627,-0.76,-0.7609,-0.7609,-0.7612,-0.7676,-0.7692,-0.7736,-0.7653,-0.7654,-0.7655,0,-0.7689,-0.7687,-0.7712,-0.7698,-0.77,-0.7711,-0.7709,-0.7714,-0.7707,-0.7699,-0.7698,-0.768,-0.7692,-0.7666,-0.7682,-0.7664,-0.7666,-0.7662,-0.7663,-0.7664,-0.7635,-0.768,-0.775,-0.7757,-0.7664,-0.7663,-0.7662,0,-0.7743,-0.7747,-0.7762,-0.776,-0.7745,-0.7753,-0.7747,-0.7739,-0.774,-0.7739,-0.774,-0.7741,-0.7741,-0.7742,-0.7725,-0.7707,-0.7744,-0.7716,-0.7738,-0.7739,-0.7748,-0.7748,-0.7821,-0.7748,-0.7748,-0.7748,-0.7748,0,-0.7798,-0.7814,-0.7786,-0.7796,-0.7814,-0.7791,-0.7809,-0.78,-0.7793,-0.7801,-0.7776,-0.7784,-0.776,-0.7766,-0.7752,-0.7768,-0.7769,-0.7763,-0.7759,-0.7766,-0.7767,-0.7768,-0.7765,-0.775,-0.7749,-0.7749,-0.7749,0,-0.7862,-0.7844,-0.7859,-0.7843,-0.7839,-0.7853,-0.784,-0.7848,-0.7836,-0.7846,-0.7847,-0.7829,-0.7834,-0.7816,-0.7819,-0.781,-0.7834,-0.7824,-0.7836,-0.7833,-0.7857,-0.7855,-0.7933,-0.7943,-0.7863,-0.7864,-0.7865,0,-0.7899,-0.7911,-0.7896,-0.7899,-0.7894,-0.79,-0.79,-0.7878,-0.788,-0.7873,-0.7883,-0.7886,-0.7887,-0.7897,-0.7884,-0.7886,-0.7877,-0.7905,-0.7878,-0.7884,-0.7879,-0.7879,-0.788,-0.7911,-0.7912,-0.7912,-0.7913,0,-0.7967,-0.7957,-0.7959,-0.7958,-0.796,-0.7958,-0.7954,-0.7959,-0.7934,-0.7938,-0.7943,-0.7944,-0.7946,-0.795,-0.7949,-0.7943,-0.7925,-0.7921,-0.7927,-0.7934,-0.7941,-0.7938,-0.7852,-0.792,-0.7919,-0.7919,-0.7919,-0.7918,-0.8019,-0.8028,-0.8019,-0.8022,-0.8017,-0.8014,-0.8021,-0.801,-0.8013,-0.8013,-0.7999,-0.8007,-0.7999,-0.7996,-0.7992,-0.7998,-0.7986,-0.7993,-0.7995,-0.7998,-0.8002,-0.7939,-0.7998,-0.7998,-0.7998,-0.7997,-0.7997,0,-0.8087,-0.8079,-0.8082,-0.8077,-0.808,-0.806,-0.8056,-0.8059,-0.8066,-0.806,-0.8062,-0.8067,-0.8071,-0.8057,-0.8059,-0.8066,-0.8058,-0.8068,-0.8067,-0.8067,-0.8013,-0.8009,-0.8074,-0.8074,-0.8074,-0.8074,-0.8074,-0.8074,-0.8122,-0.8137,-0.8126,-0.8138,-0.813,-0.8136,-0.8135,-0.8133,-0.8128,-0.8135,-0.8137,-0.8128,-0.812,-0.812,-0.8123,-0.8119,-0.8121,-0.8134,-0.8127,-0.8078,-0.807,-0.8063,-0.8059,-0.8134,-0.8134,-0.818,-0.8181,-0.8181]},{"header":{"parameterUnit":"m.s-1","parameterCategory":1,"la1":30.2991,"la2":30.254,"lo1":-89.0895,"lo2":-89.0444,"dy":0.0017,"dx":0.0017,"nx":28,"ny":28,"refTime":"2025-09-18T03:00:00:Z","depth":0,"parameterNumber":3,"parameterNumberName":"V-component_of_WINDS"},"data":[0,0,0,0,0,0,0,0,0,0,0,0,0,0,0,0,0,0,0,0,0,0,0,0,0,0,0,0,0,0,0,0,0,0,0,0,0,0,0,0,0,0,0,0,0,0,0,0,0,0,0,0,0,0,0,0,0,0,4.2263,4.2264,0,4.2282,4.2283,4.2283,4.2245,4.2243,4.2242,4.2241,4.2258,4.2259,4.2261,0,0,0,0,0,0,0,0,0,0,0,0,0,4.2191,4.2193,4.2263,4.2264,4.2264,4.2282,4.2283,4.2283,4.2245,4.2243,4.2242,4.224,4.2257,4.2259,4.2261,0,0,0,0,0,0,0,0,0,0,0,0,0,4.2218,4.2193,4.2263,4.2247,4.2246,4.2282,4.2283,4.2283,4.2245,4.2243,4.2241,4.224,4.2256,4.2259,4.2261,4.2313,0,0,4.2268,4.2269,0,0,0,0,0,0,0,0,4.2216,4.222,4.2249,4.2248,4.2247,4.2259,4.2263,4.2293,4.2246,4.2245,4.2241,4.2239,4.2259,4.2261,4.2269,4.2314,4.2315,4.2269,4.227,4.2271,4.2272,0,0,0,0,0,0,0,4.2215,4.2219,4.2271,4.225,4.2248,4.2238,4.224,4.2269,4.2262,4.2245,4.2242,4.2245,4.2258,4.2267,4.2269,4.2315,4.2269,4.2271,4.2272,4.2273,4.2402,4.2404,0,0,0,0,0,0,4.2215,4.2218,4.227,4.2271,4.2227,4.2241,4.2243,4.2257,4.2262,4.2261,4.2247,4.2244,4.2264,4.2266,4.227,4.2329,4.2271,4.2273,4.2275,4.24,4.2403,4.2405,0,0,0,0,0,0,4.2214,4.222,4.2269,4.2244,4.2249,4.2244,4.2261,4.2258,4.2267,4.2263,4.2262,4.2257,4.2262,4.2266,4.2303,4.2329,4.2274,4.2277,4.2398,4.2401,4.2404,4.245,0,0,0,0,0,0,4.2212,4.222,4.224,4.2245,4.2251,4.2303,4.2262,4.226,4.2271,4.2267,4.2272,4.2271,4.2261,4.2299,4.2305,4.2332,4.2279,4.2395,4.2399,4.2403,4.2446,4.2455,4.2462,0,0,0,0,0,4.2209,4.2252,4.2241,4.2248,4.2276,4.2304,4.2308,4.2296,4.2274,4.2293,4.2291,4.2271,4.2326,4.2303,4.2309,4.2337,4.2394,4.2398,4.2403,4.2443,4.2453,4.2461,0,0,0,0,0,0,4.2249,4.2252,4.224,4.2286,4.2295,4.2298,4.2322,4.2307,4.2322,4.2317,4.2302,4.2303,4.2342,4.2344,4.2318,4.2388,4.2356,4.2362,4.2385,4.2394,4.2402,4.2399,4.2281,0,0,0,0,0,4.2264,4.2287,4.2288,4.2328,4.2334,4.2328,4.2339,4.233,4.2338,4.2342,4.2342,4.2351,4.237,4.2382,4.24,4.2447,4.2447,4.247,4.2477,4.2484,4.2488,4.2512,4.2521,4.242,4.242,4.242,0,0,4.2293,4.2298,4.2313,4.2336,4.2343,4.2366,4.2331,4.2357,4.2374,4.2345,4.2379,4.2381,4.2389,4.2431,4.2449,4.2433,4.2517,4.2489,4.2495,4.2495,4.2518,4.2527,4.2536,4.2423,4.2422,4.2422,0,0,4.2358,4.2365,4.2398,4.2405,4.2415,4.2411,4.2419,4.2425,4.2424,4.2459,4.2437,4.2457,4.2491,4.2497,4.2505,4.2574,4.2555,4.258,4.2619,4.2642,4.265,4.2657,4.268,4.2688,4.2585,4.2585,4.2585,0,4.2392,4.2428,4.2417,4.2445,4.2455,4.2432,4.2465,4.2472,4.2487,4.2494,4.2477,4.2519,4.2523,4.2565,4.2582,4.259,4.2597,4.2578,4.265,4.2657,4.2663,4.2684,4.2693,4.2588,4.2588,4.2587,4.2587,0,4.2469,4.2494,4.252,4.2535,4.2549,4.258,4.2572,4.2588,4.2577,4.2575,4.2609,4.2614,4.2631,4.2642,4.2631,4.2682,4.2672,4.2653,4.262,4.2676,4.2695,4.2704,4.2592,4.2591,4.259,4.2589,0,0,4.2556,4.2567,4.2577,4.2583,4.2594,4.2612,4.2642,4.266,4.2672,4.2684,4.2707,4.2737,4.2719,4.2728,4.2719,4.274,4.2792,4.2718,4.2717,4.2729,4.2846,4.2858,4.2868,4.2781,4.2782,4.2783,4.2844,0,4.2619,4.267,4.2662,4.271,4.2733,4.2712,4.2737,4.2746,4.2744,4.2762,4.2761,4.2781,4.2758,4.2763,4.2783,4.2781,4.2814,4.2777,4.28,4.2801,4.2796,4.2879,4.2892,4.2949,4.2852,4.2853,4.2854,0,4.2698,4.2713,4.2765,4.2771,4.278,4.2803,4.2819,4.2837,4.2847,4.2844,4.2855,4.2842,4.287,4.284,4.2877,4.2852,4.2862,4.2862,4.2864,4.2863,4.2829,4.2878,4.2967,4.2975,4.2867,4.2866,4.2865,0,4.2754,4.2788,4.2823,4.283,4.2839,4.2855,4.286,4.2867,4.2879,4.2892,4.2899,4.2916,4.2925,4.2938,4.293,4.2909,4.2968,4.2938,4.2965,4.2966,4.2976,4.2975,4.3066,4.2987,4.2987,4.2987,4.2987,0,4.2823,4.2855,4.2848,4.2869,4.2904,4.2894,4.2929,4.293,4.2938,4.2958,4.2941,4.2961,4.295,4.2968,4.2962,4.2993,4.2998,4.2995,4.2993,4.2995,4.2995,4.2999,4.2994,4.2989,4.2989,4.2988,4.2988,0,4.289,4.2887,4.2923,4.293,4.2932,4.2957,4.2962,4.2981,4.298,4.3006,4.3011,4.3008,4.3029,4.3023,4.3045,4.3041,4.308,4.3074,4.3077,4.3074,4.3102,4.3098,4.3196,4.3207,4.3123,4.3124,4.3125,0,4.2933,4.2957,4.2966,4.2979,4.2985,4.3006,4.3018,4.301,4.3023,4.3036,4.3053,4.3073,4.3087,4.3121,4.312,4.3137,4.3129,4.3163,4.3132,4.3133,4.3127,4.3125,4.3126,4.3168,4.3169,4.317,4.317,0,4.3008,4.3006,4.3024,4.3042,4.3057,4.3071,4.3083,4.3094,4.3087,4.3102,4.3123,4.3135,4.3158,4.3177,4.3193,4.3196,4.3181,4.3181,4.3187,4.3189,4.3189,4.3187,4.3091,4.3177,4.3177,4.3176,4.3176,4.3175,4.3063,4.3083,4.3093,4.3113,4.3122,4.3134,4.3152,4.3153,4.3171,4.319,4.3184,4.3208,4.3217,4.3236,4.3242,4.326,4.3247,4.3258,4.326,4.3262,4.3264,4.3188,4.3263,4.3263,4.3263,4.3262,4.3262,0,4.3136,4.3141,4.3161,4.3178,4.3195,4.3182,4.3194,4.3208,4.323,4.324,4.3255,4.328,4.3298,4.33,4.3317,4.3331,4.3324,4.3335,4.3333,4.3333,4.3276,4.3267,4.334,4.334,4.334,4.334,4.334,4.334,4.3175,4.3208,4.3207,4.3243,4.3249,4.3273,4.3281,4.3291,4.3299,4.3327,4.3343,4.3344,4.335,4.3368,4.3384,4.3384,4.339,4.3403,4.34,4.3346,4.3338,4.333,4.3322,4.3405,4.3405,4.3456,4.3456,4.3457]}]]